Regional Weather Roundup
Issued by NWS Raleigh/Durham, NC

Home | Current Version | Previous Version | Text Only | Print | Product List | Glossary On
Versions: 1 2 3 4 5 6 7 8 9 10 11 12 13 14 15 16 17 18 19 20 21 22 23 24 25 26 27 28 29 30 31 32 33 34 35 36 37 38 39 40 41 42 43 44 45 46 47 48 49 50
000
ASUS42 KRAH 201310
RWRRAH
NORTH CAROLINA WEATHER ROUNDUP
NATIONAL WEATHER SERVICE RALEIGH NC
900 AM EDT MON OCT 20 2014

NOTE: "FAIR" INDICATES FEW OR NO CLOUDS BELOW 12,000 FEET WITH NO
SIGNIFICANT WEATHER AND/OR OBSTRUCTIONS TO VISIBILITY.

NCZ001-053-055-056-065-067-201400-
WESTERN NORTH CAROLINA

CITY           SKY/WX    TMP DP  RH WIND       PRES   REMARKS
ASHEVILLE      MOSUNNY   43  41  93 S3        30.14R
JEFFERSON      SUNNY     44  39  81 S3        30.10F
MORGANTON      PTSUNNY   42  42 100 CALM      30.17S FOG
HICKORY        PTSUNNY   47  44  90 CALM      30.13R
RUTHERFORDTON  SUNNY     46  45  97 CALM      30.14S
MOUNT AIRY     PTSUNNY   45  42  90 CALM      30.15R
BOONE          MOSUNNY   42  40  94 W3        30.12S
$$

NCZ021-022-025-041-071-084-088-201400-
CENTRAL NORTH CAROLINA

CITY           SKY/WX    TMP DP  RH WIND       PRES   REMARKS
CHARLOTTE      MOSUNNY   51  45  79 S6        30.15R
GREENSBORO     PTSUNNY   49  44  83 S7        30.14R
WINSTON-SALEM  PTSUNNY   50  42  74 SW5       30.15R
RALEIGH-DURHAM MOSUNNY   51  43  74 S5        30.17R
FORT BRAGG     NOT AVBL
FAYETTEVILLE   SUNNY     50  45  83 S3        30.17R
BURLINGTON     MOSUNNY   48  44  86 CALM      30.15R
LAURINBURG     SUNNY     48  45  89 CALM      30.18R
$$

NCZ011-015-027-028-043-044-047-080-103-201400-
NORTHEASTERN NORTH CAROLINA

CITY           SKY/WX    TMP DP  RH WIND       PRES   REMARKS
ROCKY MT-WILSO MOSUNNY   49  46  90 S3        30.18R
GREENVILLE     MOSUNNY   50  46  87 CALM      30.19S
WASHINGTON     SUNNY     47  45  93 CALM      30.19S
ELIZABETH CITY MOSUNNY   52  46  80 SW3       30.19R
MANTEO         SUNNY     58  46  64 CALM      30.20R
CAPE HATTERAS  SUNNY     62  49  62 CALM      30.19R
$$

NCZ078-087-090-091-093-098-101-201400-
SOUTHEASTERN NORTH CAROLINA

CITY           SKY/WX    TMP DP  RH WIND       PRES   REMARKS
LUMBERTON      SUNNY     49  46  90 CALM      30.17R
GOLDSBORO      SUNNY     50  49  97 CALM      30.17R
KINSTON        SUNNY     48  46  93 CALM      30.19S
KENANSVILLE    SUNNY     48  47  95 CALM      30.19R
NEW BERN       SUNNY     53  49  86 CALM      30.20R
CHERRY POINT   MOSUNNY   53  48  83 CALM      30.20R
BEAUFORT       SUNNY     59  46  62 CALM      30.19R
JACKSONVILLE   SUNNY     53  48  83 CALM      30.18R
WILMINGTON     SUNNY     56  46  69 CALM      30.17R
$$



USA.gov is the U.S. government's official web portal to all federal, state and local government web resources and services.